Weather History for PAEM - November, 2013

Change the Weather History Date:

Wednesday, November 13, 2013

  Actual Average Record
Temperature  
Mean Temperature 38 °F -  
Max Temperature 39 °F 25 °F 39 °F (2013)
Min Temperature 37 °F 17 °F 6 °F (2001)
Degree Days  
Heating Degree Days 27    
Moisture  
Dew Point 33 °F    
Average Humidity 83    
Maximum Humidity 93    
Minimum Humidity 65    
Precipitation  
Precipitation 0.01 in - - ()
Sea Level Pressure  
Sea Level Pressure 29.81 in    
Wind  
Wind Speed 20 mph (SW)    
Max Wind Speed 31 mph    
Max Gust Speed 43 mph    
Visibility 4 miles    
Events      
Averages and records for this station are not official NWS values.
T = Trace of Precipitation, MM = Missing Value Source: NWS Daily Summary

Daily Weather History Graph

Daily Weather History Graph

Search for Another Location

Airport or City:

Trip Planner

Search our weather history database for the weather conditions in past years. The results will help you decide how hot, cold, wet, or windy it might be!

Date:

Astronomy

Nov. 13, 2013 Rise Set
Actual Time 10:10 AM AKST 5:12 PM AKST
Civil Twilight 9:15 AM AKST 6:07 PM AKST
Nautical Twilight 8:18 AM AKST 7:04 PM AKST
Astronomical Twilight 7:25 AM AKST 7:58 PM AKST
Moon 4:09 PM AKST (11/13) 5:06 AM AKST (11/13)
Length of Visible Light 8h 52m
Length of Day
7h 01m
Waxing Gibbous, 86% of the Moon is Illuminated
Nov 13
Waxing Gibbous
Nov 17
Full
Nov 25
Last Quarter
Dec 2
New
Dec 9
First Quarter

Hourly Weather History & Observations

Time (AKST) Temp. Windchill Dew Point Humidity Pressure Visibility Wind Dir Wind Speed Gust Speed Precip Events Conditions
12:16 AM 37.4 °F 27.8 °F 35.6 °F 93% 29.74 in 3.0 mi SW 17.3 mph 23.0 mph N/A   Overcast
12:36 AM 37.4 °F 27.8 °F 35.6 °F 93% 29.74 in 2.0 mi SW 17.3 mph 23.0 mph N/A   Overcast
12:56 AM 37.4 °F 28.2 °F 35.6 °F 93% 29.75 in 1.5 mi SW 16.1 mph 23.0 mph N/A   Overcast
1:16 AM 37.4 °F 28.5 °F 33.8 °F 87% 29.75 in 1.2 mi SW 15.0 mph 23.0 mph N/A   Overcast
1:36 AM 37.4 °F 28.2 °F 35.6 °F 93% 29.76 in 1.2 mi SW 16.1 mph 23.0 mph N/A   Overcast
1:56 AM 37.4 °F 27.8 °F 35.6 °F 93% 29.77 in 1.5 mi SW 17.3 mph 23.0 mph N/A   Overcast
2:16 AM 37.4 °F 27.5 °F 35.6 °F 93% 29.77 in 2.0 mi SW 18.4 mph 24.2 mph N/A   Overcast
2:36 AM 37.4 °F 27.2 °F 35.6 °F 93% 29.78 in 2.0 mi SW 19.6 mph 25.3 mph N/A   Overcast
2:56 AM 37.4 °F 28.5 °F 35.6 °F 93% 29.78 in 2.0 mi SW 15.0 mph 21.9 mph N/A   Overcast
3:16 AM 37.4 °F 27.8 °F 35.6 °F 93% 29.78 in 1.8 mi SW 17.3 mph 24.2 mph N/A   Overcast
3:36 AM 37.4 °F 27.5 °F 33.8 °F 87% 29.79 in 1.2 mi SW 18.4 mph 21.9 mph N/A   Overcast
3:56 AM 37.4 °F 27.5 °F 35.6 °F 93% 29.80 in 2.0 mi SW 18.4 mph 27.6 mph N/A   Overcast
4:16 AM 37.4 °F 28.5 °F 35.6 °F 93% 29.80 in 1.8 mi SW 15.0 mph - N/A   Overcast
4:36 AM 37.4 °F 27.2 °F 35.6 °F 93% 29.80 in 3.0 mi SW 19.6 mph 25.3 mph N/A   Overcast
4:56 AM 39.2 °F 30.2 °F 35.6 °F 87% 29.80 in 2.0 mi SW 17.3 mph 24.2 mph N/A   Overcast
5:16 AM 37.4 °F 28.2 °F 35.6 °F 93% 29.80 in 2.5 mi SSW 16.1 mph - N/A   Overcast
5:36 AM 37.4 °F 27.8 °F 33.8 °F 87% 29.80 in 1.5 mi SSW 17.3 mph 24.2 mph N/A   Overcast
5:56 AM 37.4 °F 27.2 °F 33.8 °F 87% 29.80 in 1.8 mi SSW 19.6 mph 24.2 mph N/A   Overcast
6:16 AM 37.4 °F 27.5 °F 35.6 °F 93% 29.80 in 1.2 mi SSW 18.4 mph 26.5 mph N/A   Overcast
6:36 AM 37.4 °F 27.8 °F 35.6 °F 93% 29.79 in 0.8 mi SSW 17.3 mph 26.5 mph N/A   Overcast
6:56 AM 37.4 °F 27.8 °F 33.8 °F 87% 29.79 in 1.0 mi SSW 17.3 mph - N/A   Overcast
7:16 AM 37.4 °F 27.5 °F 35.6 °F 93% 29.78 in 4.0 mi SSW 18.4 mph - N/A   Overcast
7:36 AM 37.4 °F 27.8 °F 35.6 °F 93% 29.79 in 2.5 mi SSW 17.3 mph 25.3 mph N/A   Overcast
7:56 AM 37.4 °F 26.6 °F 35.6 °F 93% 29.78 in 3.0 mi SSW 21.9 mph 26.5 mph N/A   Overcast
8:16 AM 37.4 °F 27.2 °F 35.6 °F 93% 29.76 in 1.2 mi SSW 19.6 mph 27.6 mph N/A   Overcast
8:36 AM 39.2 °F 29.0 °F 35.6 °F 87% 29.77 in 1.2 mi SSW 21.9 mph 29.9 mph N/A   Overcast
8:56 AM 39.2 °F 28.3 °F 35.6 °F 87% 29.77 in 1.0 mi SSW 25.3 mph 35.7 mph N/A   Overcast
9:16 AM 39.2 °F 28.3 °F 35.6 °F 87% 29.74 in 2.0 mi SSW 25.3 mph 35.7 mph N/A   Overcast
9:36 AM 39.2 °F 28.7 °F 35.6 °F 87% 29.75 in 1.5 mi SSW 23.0 mph 35.7 mph N/A   Overcast
9:56 AM 39.2 °F 28.7 °F 35.6 °F 87% 29.75 in 1.5 mi SSW 23.0 mph 33.4 mph N/A   Overcast
10:16 AM 39.2 °F 28.3 °F 35.6 °F 87% 29.75 in 2.5 mi SSW 25.3 mph 36.8 mph N/A   Overcast
10:36 AM 39.2 °F 28.7 °F 35.6 °F 87% 29.74 in 10.0 mi SSW 23.0 mph 35.7 mph 0.01 in   Overcast
10:56 AM 39.2 °F 28.3 °F 35.6 °F 87% 29.72 in 5.0 mi SSW 25.3 mph 34.5 mph 0.01 in   Overcast
11:16 AM 39.2 °F 28.3 °F 35.6 °F 87% 29.72 in 3.0 mi SSW 25.3 mph 36.8 mph N/A   Overcast
11:36 AM 39.2 °F 27.2 °F 37.4 °F 93% 29.77 in 1.8 mi SSW 31.1 mph 38.0 mph N/A   Overcast
11:56 AM 39.2 °F 27.4 °F 35.6 °F 87% 29.78 in 1.2 mi SW 29.9 mph 42.6 mph N/A   Overcast
12:16 PM 39.2 °F 28.5 °F 35.6 °F 87% 29.78 in 2.0 mi SSW 24.2 mph 33.4 mph N/A   Overcast
12:36 PM 39.2 °F 28.7 °F 35.6 °F 87% 29.78 in 2.5 mi SSW 23.0 mph 31.1 mph N/A   Overcast
12:56 PM 39.2 °F 28.7 °F 37.4 °F 93% 29.78 in 2.5 mi SW 23.0 mph 32.2 mph N/A   Overcast
1:16 PM 39.2 °F 28.7 °F 35.6 °F 87% 29.78 in 2.0 mi SW 23.0 mph 29.9 mph N/A   Overcast
1:36 PM 39.2 °F 28.7 °F 35.6 °F 87% 29.78 in 3.0 mi SW 23.0 mph 29.9 mph N/A   Overcast
1:56 PM 39.2 °F 29.3 °F 35.6 °F 87% 29.78 in 3.0 mi SW 20.7 mph 32.2 mph N/A   Overcast
2:16 PM 39.2 °F 28.5 °F 35.6 °F 87% 29.78 in 3.0 mi SW 24.2 mph 33.4 mph N/A   Overcast
2:36 PM 39.2 °F 28.0 °F 35.6 °F 87% 29.79 in 2.5 mi SW 26.5 mph 39.1 mph N/A   Overcast
2:56 PM 39.2 °F 28.3 °F 35.6 °F 87% 29.80 in 5.0 mi SW 25.3 mph 38.0 mph N/A   Overcast
3:16 PM 39.2 °F 28.7 °F 35.6 °F 87% 29.81 in 6.0 mi SW 23.0 mph 36.8 mph N/A   Overcast
3:36 PM 39.2 °F 28.3 °F 33.8 °F 81% 29.82 in 10.0 mi SW 25.3 mph 36.8 mph N/A   Overcast
3:56 PM 39.2 °F 28.5 °F 32.0 °F 75% 29.81 in 8.0 mi WSW 24.2 mph 34.5 mph N/A   Overcast
4:16 PM 39.2 °F 29.0 °F 32.0 °F 75% 29.83 in 7.0 mi SW 21.9 mph 35.7 mph N/A   Overcast
4:36 PM 39.2 °F 27.4 °F 30.2 °F 70% 29.84 in 8.0 mi SW 29.9 mph 38.0 mph N/A   Overcast
4:56 PM 37.4 °F 26.1 °F 30.2 °F 75% 29.85 in 7.0 mi SW 24.2 mph 42.6 mph N/A   Overcast
5:16 PM 37.4 °F 25.2 °F 30.2 °F 75% 29.86 in 7.0 mi WSW 28.8 mph 35.7 mph N/A   Overcast
5:36 PM 37.4 °F 25.9 °F 28.4 °F 70% 29.87 in 8.0 mi SW 25.3 mph 33.4 mph N/A   Overcast
5:56 PM 37.4 °F 26.6 °F 28.4 °F 70% 29.87 in 8.0 mi SW 21.9 mph 33.4 mph N/A   Overcast
6:16 PM 37.4 °F 26.6 °F 28.4 °F 70% 29.86 in 8.0 mi SW 21.9 mph 28.8 mph N/A   Overcast
6:36 PM 37.4 °F 26.9 °F 28.4 °F 70% 29.87 in 8.0 mi SW 20.7 mph 29.9 mph N/A   Overcast
6:56 PM 37.4 °F 25.2 °F 28.4 °F 70% 29.87 in 8.0 mi SW 28.8 mph 35.7 mph N/A   Overcast
7:16 PM 37.4 °F 26.6 °F 28.4 °F 70% 29.87 in 8.0 mi SW 21.9 mph 32.2 mph N/A   Overcast
7:36 PM 37.4 °F 26.9 °F 28.4 °F 70% 29.87 in 8.0 mi SW 20.7 mph 29.9 mph N/A   Overcast
7:56 PM 37.4 °F 26.9 °F 28.4 °F 70% 29.87 in 8.0 mi SW 20.7 mph 31.1 mph N/A   Overcast
8:16 PM 37.4 °F 27.8 °F 28.4 °F 70% 29.88 in 8.0 mi SW 17.3 mph 28.8 mph N/A   Overcast
8:36 PM 37.4 °F 26.4 °F 28.4 °F 70% 29.87 in 8.0 mi SW 23.0 mph 26.5 mph N/A   Overcast
8:56 PM 37.4 °F 26.6 °F 28.4 °F 70% 29.88 in 8.0 mi SW 21.9 mph 32.2 mph N/A   Overcast
9:16 PM 37.4 °F 26.6 °F 28.4 °F 70% 29.88 in 8.0 mi WSW 21.9 mph 32.2 mph N/A   Overcast
9:36 PM 37.4 °F 26.6 °F 28.4 °F 70% 29.89 in 8.0 mi WSW 21.9 mph 34.5 mph N/A   Overcast
9:56 PM 37.4 °F 26.1 °F 28.4 °F 70% 29.89 in 8.0 mi SW 24.2 mph 29.9 mph N/A   Overcast
10:16 PM 37.4 °F 26.6 °F 28.4 °F 70% 29.89 in 8.0 mi WSW 21.9 mph 31.1 mph N/A   Overcast
10:36 PM 37.4 °F 25.9 °F 28.4 °F 70% 29.89 in 8.0 mi SW 25.3 mph 32.2 mph N/A   Overcast
10:56 PM 37.4 °F 25.6 °F 28.4 °F 70% 29.90 in 8.0 mi SW 26.5 mph 33.4 mph N/A   Overcast
11:16 PM 37.4 °F 25.9 °F 26.6 °F 65% 29.90 in 9.0 mi WSW 25.3 mph 32.2 mph N/A   Overcast
11:36 PM 37.4 °F 26.4 °F 26.6 °F 65% 29.90 in 10.0 mi WSW 23.0 mph 33.4 mph N/A   Overcast
11:56 PM 37.4 °F 28.9 °F 28.4 °F 70% 29.92 in 9.0 mi WSW 13.8 mph 19.6 mph N/A   Overcast